COSMOS 2318 (GLONASS)

Satellite information

Favourite Embed

Satellite Type and Status

PAYLOADIN ORBIT

Key statistics

Satellite COSMOS 2318 (GLONASS) at a glance.

Uptime

11001

Days in orbit

Revolutions

≈ 2.1

Per day

Orbit

MEO

Medium Earth Orbit

Inclination

65.5

Latest

Satellite identification and parameters

Extended collection of information and parameters for COSMOS 2318 (GLONASS).

Object identification

Identified? True

Debris? False

Object name: COSMOS 2318 (GLONASS)

International designator: 1995-037C

Object number (NORAD): 23622

Object ID (CCSDS): 23622

Country: COMMONWEALTH OF INDEPENDENT STATES (CIS)

Current information (Y/N): Y

RCS size: LARGE

Orbital parameters

Period: 675.733 minutes

Inclination: 65.4728 deg

SMA: 25508.019 km

Apoapsis: 19168.371 km

Periapsis: 19091.397 km

RAAN: 212.0934 deg

Eccentricy: 0.00150882

Argument of periapsis: 69.6087 deg

Mean anomaly: 110.0019 deg

Mean motion: 2.1310207 rev/day

Mean motion (dot): 0.00000048 rev/day2

B* drag term: 0.0 1/REarth

Two-line elements (TLE)

Creation date: Sept. 4, 2025, 10:13 a.m.

Reference frame: TEME

Reference center: EARTH

Epoch: Sept. 3, 2025, 11:58 p.m. UTC

TLE line 0: 0 COSMOS 2318 (GLONASS)

TLE line 1: 1 23622U 95037C 25246.99889299 .00000048 00000-0 00000-0 0 9993

TLE line 2: 2 23622 65.4728 212.0934 0015088 69.6087 110.0019 2.13102070234139

Live tracking on map

Real-time ground track for satellite COSMOS 2318 (GLONASS).

In-orbit conjunctions

A list of the most updated potential collisions computed for object COSMOS 2318 (GLONASS).

Target Orbit TCA Probability of collision Miss distance Type
SL-12 R/B(2) MEO 2024-06-06 04:56:22 TBA 3914.0 (m) ROCKET BODY

Associated space launch

GLONASS navigation satellites

COSMOS 2318 (GLONASS) was lifted into orbit during the mission ‘Proton | Uragan 66 to 68’, on board a Proton space rocket.

The launch took place on July 24, 1995, 3:52 p.m. from 200/39 (200L).

For more information about the launch, click the button.

Launch to space Proton | Uragan 66 to 68
Proton | Uragan 66 to 68

Agency: N/A

Status: Launch Successful

Launch date: July 24, 1995, 3:52 p.m. UTC

Rocket: Proton

Launch pad: 200/39 (200L)

Location: Baikonur Cosmodrome, Republic of Kazakhstan

...

Latest news about this satellite

There are no fresh news available about this satellite. Check back as we update our databases every day.


Newsletter sign-up

Weekly statistics, charts and insights to help you stay on top of the space industry.